Other Surface Observations
Issued by NWS

Home | Current Version | Previous Version | Text Only | Print | Product List | Glossary On
Versions: 1 2 3 4 5 6 7 8 9 10 11 12 13 14 15 16 17 18 19 20 21 22 23 24 25 26 27 28 29 30 31 32 33 34 35 36 37 38 39 40 41 42 43 44 45 46 47 48 49 50
000
SXUS52 KTAE 241018
OSOTAE
OSOTAE
North Florida/South Alabama/Southwest Georgia Weather Roundup
National Weather Service Tallahassee Florida
600 AM EDT FRI OCT 24 2014

Note: "fair" indicates few or no clouds below 12,000 feet with no
significant weather and/or obstructions to visibility.

!FLZ017-115-028-034-025-241100
...North Florida...

CITY           SKY/WX    TMP DP  RH WIND       PRES   REMARKS
TALLAHASSEE    MOCLDY    48  43  82 CALM      30.02S
APALACHICOLA   MOCLDY    57  48  72 NE6       30.01S
PERRY          CLEAR     45  45 100 CALM      30.02S
CROSS CITY       N/A     45  43  93 CALM      30.00S
JACKSONVILLE   CLEAR     47  46  97 CALM      30.01R
$$

!FLZ112-006-005-002-011-241100
...Florida Panhandle...

CITY           SKY/WX    TMP DP  RH WIND       PRES   REMARKS
MARIANNA       CLOUDY    53  51  93 CALM      30.03R
BONIFAY        NOT AVBL
PANAMA CITY NW FAIR      53  49  86 CALM      30.02R
TYNDALL AFB    CLOUDY    53  50  92 NW1       30.03R
TYND DRONE APT FAIR      55  50  85 MISG      30.01R
DE FUNIAK SPR  FAIR      53  48  84 N6        30.05R
EGLIN AFB      MOCLDY    54  46  73 N5        30.04R
DESTIN         PTCLDY    60  49  66 NE5       30.03S
HURLBURT       MOCLDY    53  44  73 N8        30.03R
CRESTVIEW      PTCLDY    48  47  96 CALM      30.06R
PENSACOLA      CLEAR     55  47  74 N8        30.05R
$$

!ALZ063-066-241100
...South Alabama...

CITY           SKY/WX    TMP DP  RH WIND       PRES   REMARKS
DOTHAN         PTCLDY    51  47  86 CALM      30.07R
OZARK CAIRNS   CLOUDY    54  47  76 NW7       30.04R
FT RUCKER HELI PTCLDY    48  46  93 CALM      30.04R
RUCKER HELI 3  MOCLDY    51  48  89 N5        30.07R
RUCKER HELI 2  FAIR      51  47  86 N3        30.04S
FLORALA APT    MOCLDY    54  47  77 NW3       30.06R
ANDALUSIA      PTCLDY    54  46  74 CALM      30.05R
TROY           PTCLDY    45  44  97 CALM      30.06R
EUFALA         FAIR      47  45  93 CALM      30.04R
MOBILE         PTCLDY    51  48  89 NW5       30.08R
$$

!GAZ120>161-241100
...Southwest and South Central Georgia...

CITY           SKY/WX    TMP DP  RH WIND       PRES   REMARKS
THOMASVILLE    FAIR      50  50 100 CALM      30.04S
BAINBRIDGE     CLOUDY    54  52  94 CALM      30.04R
MOODY AFB      MOCLDY    47  45  91 CALM      30.03R
VALDOSTA       PTCLDY    46  43  89 CALM      30.03R
MOULTRIE       MOCLDY    50  50 100 CALM      30.03S
BLAKELY        CLOUDY    52  50  93 CALM        N/A
ALBANY         CLOUDY    52  49  89 CALM      30.06R
TIFTON         FAIR      48  47  97 CALM      30.03S
FITZGERALD     FAIR      50  47  92 CALM      30.05S
CORDELE        FAIR      50  48  92 CALM      30.04S
AMERICUS       FAIR      50  50 100 CALM      30.05S
HOMERVILLE     FAIR      46  46 100 CALM      30.04R
$$

!GMZ750-755-770-775-241100
...Coastal and Buoy Obs...

STATION/POSITION TIME  TEMP    WIND        PRES    VSBY  WAVE
                       AIR SEA DIR/SP/G                  HT/PER
                 (UTC) (F)     (DEG/KT/KT) (MB)    (MI)  (FT/S)
KEATON BEACH     1000   51      40/  4/  6 1016.2S
CEDAR KEY        0956   62      50/  8/ 10 1016.0S
C TOWER          1000   69      30/ 13/ 15 1015.7R
APALACHICOLA BUO 1000   73 80   40/ 10/ 14 1014.6F         3/ 5
PANAMA CITY BUOY 0855   72 80   40/  8/ 12 1015.7F         3/ 5
MOBILE BUOY      0928   72 78   40/  6/  8 1017.2R         3/ 7
ORANGE BCH AL BU 1000   68 78   20/ 14/ 16 1016.7R         2/ 3
$$



USA.gov is the U.S. government's official web portal to all federal, state and local government web resources and services.